Fort Smith, AR

8:02 PM CST on January 19, 2018 (GMT -0600)
Fort Smith Regional

Weather History for KFSM - May, 2013

Change the Weather History Date:

Wednesday, May 22, 2013

  Actual Average Record
Temperature  
Mean Temperature 69 °F 71 °F  
Max Temperature 81 °F 82 °F 94 °F (1953)
Min Temperature 57 °F 61 °F 42 °F (1892)
Cooling Degree Days 4 7  
Month to date cooling degree days 109 105  
Year to date cooling degree days 182 171  
Growing Degree Days 19 (Base 50)    
Moisture  
Dew Point 59 °F    
Average Humidity 74    
Maximum Humidity 97    
Minimum Humidity 51    
Precipitation  
Precipitation 0.00 in 0.18 in 3.58 in (1957)
Month to date precipitation 4.67 3.96  
Year to date precipitation 20.25 17.68  
Sea Level Pressure  
Sea Level Pressure 29.86 in    
Wind  
Wind Speed 5 mph (West)    
Max Wind Speed 20 mph    
Max Gust Speed 23 mph    
Visibility 7 miles    
Events Fog    
T = Trace of Precipitation, MM = Missing Value Source: NWS Daily Summary

Daily Weather History Graph

Daily Weather History Graph

Search for Another Location

Airport or City:

Trip Planner

Search our weather history database for the weather conditions in past years. The results will help you decide how hot, cold, wet, or windy it might be!

Date:

Astronomy

May. 22, 2013 Rise Set
Actual Time 6:08 AM CDT 8:20 PM CDT
Civil Twilight 5:39 AM CDT 8:49 PM CDT
Nautical Twilight 5:04 AM CDT 9:24 PM CDT
Astronomical Twilight 4:26 AM CDT 10:02 PM CDT
Moon 5:48 PM CDT (5/22) 4:06 AM CDT (5/22)
Length of Visible Light 15h 09m
Length of Day
14h 12m
Waxing Gibbous, 91% of the Moon is Illuminated
May 22
Waxing Gibbous
May 24
Full
May 31
Last Quarter
Jun 8
New
Jun 16
First Quarter

Hourly Weather History & Observations

Time (CDT) Temp. Heat Index Dew Point Humidity Pressure Visibility Wind Dir Wind Speed Gust Speed Precip Events Conditions
12:53 AM 61.0 °F - 59.0 °F 93% 29.82 in 10.0 mi Calm Calm - N/A   Partly Cloudy
1:53 AM 60.1 °F - 57.9 °F 93% 29.83 in 10.0 mi WSW 4.6 mph - N/A   Clear
2:53 AM 60.1 °F - 57.9 °F 93% 29.82 in 10.0 mi Calm Calm - N/A   Clear
3:21 AM 57.2 °F - 55.4 °F 94% 29.84 in 2.5 mi East 4.6 mph - N/A   Partly Cloudy
3:23 AM 57.2 °F - 55.4 °F 94% 29.84 in 1.0 mi East 4.6 mph - N/A   Mist
3:30 AM 57.2 °F - 55.4 °F 94% 29.84 in 0.5 mi Calm Calm - N/A Fog Fog
3:38 AM 57.2 °F - 57.2 °F 100% 29.84 in 1.2 mi Calm Calm - N/A   Partly Cloudy
3:42 AM 57.2 °F - 55.4 °F 94% 29.84 in 3.0 mi Calm Calm - N/A   Partly Cloudy
3:53 AM 57.9 °F - 55.9 °F 93% 29.83 in 8.0 mi Calm Calm - N/A   Partly Cloudy
4:53 AM 57.0 °F - 55.9 °F 96% 29.84 in 6.0 mi Calm Calm - N/A   Clear
5:13 AM 57.2 °F - 55.4 °F 94% 29.85 in 8.0 mi Calm Calm - N/A   Scattered Clouds
5:22 AM 57.2 °F - 55.4 °F 94% 29.85 in 7.0 mi Calm Calm - N/A   Mostly Cloudy
5:50 AM 59.0 °F - 57.2 °F 94% 29.85 in 0.5 mi Calm Calm - N/A Fog Fog
5:53 AM 59.0 °F - 57.0 °F 93% 29.85 in 0.5 mi Calm Calm - N/A Fog Fog
6:02 AM 59.0 °F - 57.2 °F 94% 29.85 in 0.5 mi Calm Calm - N/A Fog Fog
6:16 AM 59.0 °F - 57.2 °F 94% 29.85 in 0.5 mi Calm Calm - N/A Fog Fog
6:53 AM 59.0 °F - 57.0 °F 93% 29.85 in 0.5 mi Calm Calm - N/A Fog Fog
7:00 AM 59.0 °F - 57.2 °F 94% 29.85 in 0.2 mi SE 3.5 mph - N/A Fog Fog
7:53 AM 60.1 °F - 57.9 °F 93% 29.87 in 0.5 mi Calm Calm - N/A Fog Fog
8:00 AM 60.8 °F - 59.0 °F 94% 29.88 in 0.5 mi Calm Calm - N/A Fog Fog
8:08 AM 60.8 °F - 59.0 °F 94% 29.88 in 2.0 mi Calm Calm - N/A   Overcast
8:15 AM 60.8 °F - 60.8 °F 100% 29.88 in 8.0 mi WSW 3.5 mph - N/A   Mostly Cloudy
8:34 AM 60.8 °F - 60.8 °F 100% 29.88 in 10.0 mi WSW 3.5 mph - N/A   Scattered Clouds
8:53 AM 63.0 °F - 61.0 °F 93% 29.87 in 10.0 mi West 3.5 mph - N/A   Partly Cloudy
9:53 AM 64.9 °F - 60.1 °F 84% 29.91 in 10.0 mi West 8.1 mph - N/A   Mostly Cloudy
10:00 AM 64.4 °F - 59.0 °F 83% 29.92 in 10.0 mi West 11.5 mph - N/A   Mostly Cloudy
10:17 AM 66.2 °F - 60.8 °F 83% 29.91 in 10.0 mi West 9.2 mph - N/A   Scattered Clouds
10:53 AM 69.1 °F - 61.0 °F 75% 29.90 in 10.0 mi West 6.9 mph - N/A   Partly Cloudy
11:53 AM 72.0 °F - 61.0 °F 68% 29.89 in 10.0 mi WSW 5.8 mph 16.1 mph N/A   Clear
12:53 PM 77.0 °F - 61.0 °F 58% 29.88 in 10.0 mi WSW 11.5 mph 16.1 mph N/A   Clear
1:53 PM 79.0 °F - 60.1 °F 52% 29.87 in 10.0 mi West 13.8 mph - N/A   Clear
2:53 PM 80.1 °F 81.2 °F 62.1 °F 54% 29.86 in 10.0 mi West 12.7 mph - N/A   Partly Cloudy
3:53 PM 80.1 °F 81.1 °F 61.0 °F 52% 29.85 in 10.0 mi West 15.0 mph 20.7 mph N/A   Clear
4:53 PM 81.0 °F 81.9 °F 62.1 °F 52% 29.85 in 10.0 mi West 15.0 mph 20.7 mph N/A   Clear
5:53 PM 81.0 °F 81.9 °F 62.1 °F 52% 29.85 in 10.0 mi West 9.2 mph - N/A   Clear
6:53 PM 80.1 °F 81.2 °F 62.1 °F 54% 29.85 in 10.0 mi West 8.1 mph - N/A   Clear
7:53 PM 77.0 °F - 61.0 °F 58% 29.86 in 10.0 mi WNW 4.6 mph - N/A   Clear
8:53 PM 73.9 °F - 64.0 °F 71% 29.88 in 10.0 mi West 4.6 mph - N/A   Clear
9:53 PM 72.0 °F - 64.0 °F 76% 29.90 in 10.0 mi Calm Calm - N/A   Clear
10:53 PM 69.1 °F - 64.9 °F 87% 29.93 in 10.0 mi Calm Calm - N/A   Clear
11:53 PM 68.0 °F - 63.0 °F 84% 29.93 in 10.0 mi Calm Calm - N/A   Clear